When you browse on this site, cookies collect data to enhance your experience and personalize the content and advertising you see.
Visit our Privacy Policy to learn more. By continuing to use the site, you agree to this use of cookies and data.
  • In Austria
  • List of Countries
  • For 7 days
  • Water Temperature
  • Satellite Maps
  • Weather Map
  • News
  • Weather Widgets
  • user-avatar
    Login

    Hourly Weather Yurenki

    Today, 18 February, Monday

    Time Temperature Precipitation Wind Pressure Humidity
    00:00 -4°C° 0 mm 4 mps 756 mmHg 77%
    01:00 -5°C° 0 mm 4 mps 756 mmHg 78%
    02:00 -5°C° 0 mm 3 mps 757 mmHg 78%
    03:00 -6°C° 0 mm 3 mps 758 mmHg 80%
    04:00 -6°C° 0 mm 3 mps 758 mmHg 81%
    05:00 -6°C° 0 mm 3 mps 759 mmHg 82%
    06:00 -5°C° 0 mm 2 mps 759 mmHg 83%
    07:00 -6°C° 0 mm 2 mps 760 mmHg 84%
    08:00 -6°C° 0 mm 2 mps 760 mmHg 85%
    09:00 -5°C° 0 mm 2 mps 761 mmHg 80%
    10:00 -4°C° 0 mm 2 mps 761 mmHg 76%
    11:00 -1°C° 0 mm 1 mps 761 mmHg 72%
    12:00 -1°C° 0 mm 1 mps 761 mmHg 68%
    13:00 0°C° 0 mm 1 mps 761 mmHg 65%
    14:00 0°C° 0 mm 1 mps 761 mmHg 61%
    15:00 -1°C° 0 mm 1 mps 761 mmHg 65%
    16:00 -1°C° 0 mm 1 mps 761 mmHg 68%
    17:00 -2°C° 0 mm 1 mps 761 mmHg 72%
    18:00 -2°C° 0 mm 1 mps 761 mmHg 73%
    19:00 -4°C° 0 mm 2 mps 761 mmHg 75%
    20:00 -4°C° 0 mm 2 mps 760 mmHg 76%
    21:00 -4°C° 0 mm 2 mps 760 mmHg 75%
    22:00 -5°C° 0 mm 3 mps 760 mmHg 74%
    23:00 -5°C° 0 mm 3 mps 759 mmHg 73%

    Tomorrow, 19 February, Tuesday

    Time Temperature Precipitation Wind Pressure Humidity
    00:00 -5°C° 0 mm 4 mps 759 mmHg 72%
    01:00 -5°C° 0 mm 4 mps 759 mmHg 70%
    02:00 -5°C° 0 mm 4 mps 758 mmHg 69%
    03:00 -4°C° 0 mm 4 mps 757 mmHg 69%
    04:00 -5°C° 0 mm 5 mps 757 mmHg 70%
    05:00 -5°C° 0 mm 5 mps 756 mmHg 71%
    06:00 -5°C° 0 mm 5 mps 756 mmHg 74%
    07:00 -4°C° 0 mm 5 mps 755 mmHg 77%
    08:00 -4°C° 0 mm 5 mps 755 mmHg 80%
    09:00 -2°C° 0 mm 5 mps 754 mmHg 78%
    10:00 -1°C° 0 mm 5 mps 754 mmHg 76%
    11:00 0°C° 0 mm 5 mps 753 mmHg 74%
    12:00 +1°C° 0 mm 5 mps 753 mmHg 73%
    13:00 +1°C° 0 mm 5 mps 752 mmHg 73%
    14:00 +1°C° 0 mm 5 mps 752 mmHg 73%
    15:00 +1°C° 0 mm 5 mps 751 mmHg 76%
    16:00 0°C° 0 mm 5 mps 750 mmHg 78%
    17:00 0°C° 0 mm 4 mps 750 mmHg 81%
    18:00 -1°C° 0 mm 5 mps 749 mmHg 83%
    19:00 -1°C° 0 mm 5 mps 749 mmHg 85%
    20:00 -1°C° 0 mm 5 mps 748 mmHg 87%
    21:00 -1°C° 0 mm 5 mps 747 mmHg 88%
    22:00 0°C° 0 mm 5 mps 747 mmHg 88%
    23:00 0°C° 0 mm 4 mps 746 mmHg 89%

    Day after tomorrow, 20 February, Wednesday

    Time Temperature Precipitation Wind Pressure Humidity
    00:00 0°C° 0 mm 4 mps 746 mmHg 89%
    01:00 0°C° 0 mm 4 mps 745 mmHg 89%
    02:00 0°C° 0 mm 4 mps 745 mmHg 89%
    03:00 0°C° 0.5 mm 5 mps 744 mmHg 89%
    04:00 0°C° 0.5 mm 5 mps 744 mmHg 89%
    05:00 0°C° 0.5 mm 5 mps 743 mmHg 88%
    06:00 0°C° 0.1 mm 4 mps 743 mmHg 89%
    07:00 +1°C° 0.1 mm 4 mps 743 mmHg 90%
    08:00 +1°C° 0.1 mm 4 mps 744 mmHg 91%
    09:00 +1°C° 0 mm 4 mps 743 mmHg 87%
    10:00 +1°C° 0 mm 5 mps 743 mmHg 83%
    11:00 +2°C° 0 mm 5 mps 743 mmHg 79%
    12:00 +2°C° 0.2 mm 5 mps 743 mmHg 80%
    13:00 +2°C° 0.2 mm 5 mps 743 mmHg 81%
    14:00 +1°C° 0.2 mm 5 mps 742 mmHg 82%
    15:00 +1°C° 0.2 mm 5 mps 742 mmHg 82%
    16:00 +1°C° 0.2 mm 5 mps 742 mmHg 82%
    17:00 +1°C° 0.2 mm 5 mps 742 mmHg 82%
    18:00 0°C° 0.1 mm 5 mps 743 mmHg 78%
    19:00 -1°C° 0.1 mm 5 mps 743 mmHg 75%
    20:00 -2°C° 0.1 mm 4 mps 743 mmHg 71%
    21:00 -2°C° 0.1 mm 5 mps 743 mmHg 74%
    22:00 -4°C° 0.1 mm 5 mps 743 mmHg 76%
    23:00 -4°C° 0.1 mm 5 mps 744 mmHg 79%

    21 February, Thursday

    Time Temperature Precipitation Wind Pressure Humidity
    00:00 -4°C° 0.1 mm 6 mps 744 mmHg 79%
    01:00 -5°C° 0.1 mm 6 mps 744 mmHg 79%
    02:00 -5°C° 0.1 mm 6 mps 744 mmHg 78%
    03:00 -5°C° 0.2 mm 6 mps 745 mmHg 78%
    04:00 -5°C° 0.2 mm 6 mps 745 mmHg 77%
    05:00 -5°C° 0.2 mm 6 mps 745 mmHg 76%
    06:00 -5°C° 0.1 mm 6 mps 746 mmHg 74%
    07:00 -7°C° 0.1 mm 7 mps 746 mmHg 72%
    08:00 -7°C° 0.1 mm 7 mps 747 mmHg 69%
    09:00 -7°C° 0.1 mm 7 mps 748 mmHg 69%
    10:00 -7°C° 0.1 mm 7 mps 749 mmHg 68%
    11:00 -7°C° 0.1 mm 7 mps 750 mmHg 68%
    12:00 -7°C° 0.1 mm 7 mps 751 mmHg 67%
    13:00 -7°C° 0.1 mm 7 mps 752 mmHg 67%
    14:00 -6°C° 0.1 mm 6 mps 753 mmHg 66%
    15:00 -8°C° 0 mm 6 mps 754 mmHg 67%
    16:00 -8°C° 0 mm 6 mps 755 mmHg 68%
    17:00 -8°C° 0 mm 6 mps 756 mmHg 69%
    18:00 -9°C° 0 mm 6 mps 757 mmHg 69%
    19:00 -9°C° 0 mm 6 mps 758 mmHg 68%
    20:00 -10°C° 0 mm 6 mps 759 mmHg 68%
    21:00 -10°C° 0 mm 5 mps 759 mmHg 68%
    22:00 -10°C° 0 mm 5 mps 760 mmHg 68%
    23:00 -11°C° 0 mm 5 mps 760 mmHg 68%

    22 February, Friday

    Time Temperature Precipitation Wind Pressure Humidity
    00:00 -11°C° 0 mm 5 mps 761 mmHg 69%
    01:00 -11°C° 0 mm 5 mps 762 mmHg 70%
    02:00 -12°C° 0 mm 5 mps 762 mmHg 71%
    03:00 -12°C° 0 mm 5 mps 763 mmHg 71%
    04:00 -12°C° 0 mm 5 mps 764 mmHg 72%
    05:00 -12°C° 0 mm 4 mps 764 mmHg 72%
    06:00 -12°C° 0 mm 4 mps 765 mmHg 71%
    07:00 -11°C° 0 mm 4 mps 766 mmHg 69%
    08:00 -11°C° 0 mm 4 mps 767 mmHg 68%
    09:00 -9°C° 0 mm 3 mps 768 mmHg 65%
    10:00 -8°C° 0 mm 3 mps 768 mmHg 62%
    11:00 -7°C° 0 mm 3 mps 769 mmHg 59%
    12:00 -7°C° 0 mm 3 mps 769 mmHg 58%
    13:00 -6°C° 0 mm 3 mps 769 mmHg 57%
    14:00 -5°C° 0 mm 3 mps 769 mmHg 56%
    15:00 -6°C° 0 mm 3 mps 770 mmHg 60%
    16:00 -5°C° 0 mm 2 mps 770 mmHg 64%
    17:00 -6°C° 0 mm 2 mps 770 mmHg 69%
    18:00 -6°C° 0 mm 2 mps 770 mmHg 72%
    19:00 -7°C° 0 mm 2 mps 771 mmHg 75%
    20:00 -7°C° 0 mm 2 mps 771 mmHg 78%
    21:00 -7°C° 0 mm 2 mps 771 mmHg 77%
    22:00 -8°C° 0 mm 2 mps 771 mmHg 77%
    23:00 -8°C° 0 mm 2 mps 771 mmHg 76%

    23 February, Saturday

    Time Temperature Precipitation Wind Pressure Humidity
    00:00 -7°C° 0 mm 1 mps 770 mmHg 76%
    01:00 -7°C° 0 mm 1 mps 770 mmHg 76%
    02:00 -7°C° 0 mm 1 mps 770 mmHg 75%
    03:00 -8°C° 0 mm 2 mps 769 mmHg 72%
    04:00 -7°C° 0 mm 2 mps 768 mmHg 70%
    05:00 -6°C° 0 mm 2 mps 767 mmHg 67%
    06:00 -7°C° 0.6 mm 3 mps 767 mmHg 76%
    07:00 -7°C° 0.6 mm 3 mps 766 mmHg 85%
    08:00 -7°C° 0.6 mm 3 mps 765 mmHg 94%
    09:00 -7°C° 1 mm 3 mps 764 mmHg 93%
    10:00 -6°C° 1 mm 3 mps 764 mmHg 93%
    11:00 -6°C° 1 mm 3 mps 763 mmHg 92%
    12:00 -5°C° 0.2 mm 3 mps 763 mmHg 92%
    13:00 -4°C° 0.2 mm 3 mps 762 mmHg 91%
    14:00 -2°C° 0.2 mm 3 mps 762 mmHg 90%
    15:00 -2°C° 0.1 mm 3 mps 761 mmHg 91%
    16:00 -1°C° 0.1 mm 2 mps 761 mmHg 92%
    17:00 -1°C° 0.1 mm 2 mps 761 mmHg 94%
    18:00 -1°C° 0.1 mm 2 mps 761 mmHg 94%
    19:00 +1°C° 0.1 mm 2 mps 762 mmHg 95%
    20:00 +1°C° 0.1 mm 2 mps 762 mmHg 96%
    21:00 +1°C° 0 mm 2 mps 762 mmHg 97%
    22:00 +1°C° 0 mm 2 mps 762 mmHg 97%
    23:00 +1°C° 0 mm 1 mps 762 mmHg 97%
    Show more